STARLINK-36882

Last updated on Fri Mar 27 2026 00:02:06 GMT+0000 (Coordinated Universal Time)

1 67980U 26038V 26085.50002314 -.02212212 00000+0 -59410-1 0 9998 2 67980 97.2854 96.4036 0001732 89.1076 46.9977 15.41207432 5904

Satellite not in orbit